Vorticity
6 7 8 9 7 11 14 7 6 10 11 8 9 8 6 8 19 22 15 16 12 14 11 13 18 19 17 16 -5 25 10 26 -13 11 15 14 11 8 11 7 8 1 6 8 0 10 10
7 5 10 10 5 9 15 8 6 9 8 8 12 21 9 9 14 18 11 9 15 14 6 10 10 11 15 6 7 10 0 16 12 10 12 15 12 -6 25 8 -2 17 11 6 3 7 10
9 5 8 13 3 6 15 10 7 9 9 6 4 6 7 3 9 3 12 5 -26 17 19 12 9 3 10 -1 3 16 35 9 12 16 12 16 12 -13 30 14 4 17 6 10 12 8 8
14 8 5 12 7 3 9 14 9 9 6 10 5 3 6 9 10 7 5 30 -2 5 36 53 13 2 3 6 5 17 35 72 11 13 14 16 12 -7 27 7 5 14 8 -3 11 10 11
9 14 8 6 13 4 3 14 13 10 8 5 10 6 9 13 7 2 15 3 2 15 2 3 12 -4 -1 45 34 38 4 11 14 17 13 23 -7 11 16 10 1 8 24 5 8 11 5
5 10 13 7 8 16 2 6 13 13 10 8 14 5 9 -0 13 1 11 7 42 31 16 -5 -1 -3 11 11 6 5 13 12 13 23 -7 19 -4 13 10 14 3 10 21 5 9 10 9
3 6 12 10 6 10 15 5 8 13 10 13 7 13 2 33 5 14 9 5 8 6 6 17 25 13 7 2 9 8 9 13 23 -6 0 16 6 8 11 9 12 19 4 3 12 10 2
4 4 7 14 9 5 13 9 11 14 12 20 21 18 16 15 4 6 5 5 3 11 8 14 12 7 14 13 6 8 11 15 -2 -3 11 13 14 6 8 10 18 21 -2 9 5 10 2
5 5 4 8 15 9 7 15 9 17 8 16 11 7 6 -1 -9 -16 -9 4 -3 -5 2 20 12 7 6 20 7 8 12 19 3 8 4 4 24 8 6 -6 18 9 10 11 5 7 9
5 5 5 4 9 14 10 7 18 16 4 3 -3 1 0 -2 -3 -1 3 17 -6 -4 -14 29 7 7 11 9 -0 17 26 5 7 3 8 19 13 15 6 8 -6 -3 -2 7 8 10 -7
6 6 5 5 5 10 13 11 6 20 19 -5 -5 -7 -8 -3 -5 -7 1 18 21 18 -2 -1 8 19 15 8 4 15 9 9 5 3 -1 34 16 9 13 0 15 24 8 6 10 13 3
5 6 6 5 5 6 12 11 12 9 17 22 7 -5 -9 -2 1 9 17 21 15 6 11 5 22 25 22 18 14 5 4 13 8 0 34 7 16 1 8 8 -3 29 12 7 8 8 12
5 5 6 6 6 5 6 13 10 13 11 12 16 23 21 25 25 16 14 19 4 20 1 14 15 15 9 15 4 10 10 5 4 -2 7 4 12 21 11 8 8 5 4 5 4 10 2
5 5 6 6 6 6 5 7 14 11 13 8 14 13 15 19 16 13 10 18 13 35 35 11 10 13 13 11 4 13 3 5 5 33 -10 7 1 -9 16 9 18 12 -19 10 9 9 5
5 5 5 6 7 6 6 5 8 15 8 13 8 13 14 15 21 12 35 20 20 -2 8 16 6 -6 2 22 17 10 5 12 19 -3 7 5 22 6 1 4 6 23 -0 -3 2 11 9
5 6 6 6 6 7 6 6 6 10 13 13 10 12 16 13 16 15 17 22 21 12 -7 1 12 17 6 -1 8 4 13 21 -6 15 9 16 13 8 6 5 4 -0 7 11 10 4 8
5 6 6 6 7 6 7 6 6 7 12 8 15 8 14 20 16 20 8 4 1 -1 11 13 14 18 -5 4 4 10 29 19 1 5 24 -4 22 15 9 6 9 4 4 1 5 1 8
6 6 6 7 7 7 6 7 6 7 8 15 9 10 8 12 14 9 2 3 1 10 10 7 11 5 4 12 6 6 13 21 -5 5 5 8 8 10 2 9 7 7 4 4 -3 19 4
7 6 6 6 7 7 7 6 7 6 7 10 18 8 11 16 7 10 5 2 -1 5 13 11 13 6 6 5 8 5 4 11 7 5 8 8 11 6 15 15 12 9 11 7 5 -4 8
5 6 6 6 7 9 7 8 7 7 7 9 8 14 6 9 9 9 3 5 8 11 11 12 13 9 8 6 2 13 8 7 6 8 8 6 10 0 6 7 -0 10 15 23 12 -0 -7
7 7 6 8 6 4 7 8 8 8 7 8 9 4 11 9 11 9 10 9 9 10 7 10 7 9 8 12 9 8 12 10 8 7 8 8 8 7 8 6 6 6 6 6 1 6 -7
5 5 6 5 5 4 4 3 6 8 9 7 7 10 7 8 9 10 12 10 8 7 11 8 12 5 8 4 5 2 10 9 12 11 14 11 6 7 9 13 10 11 10 9 8 7 4
4 4 3 2 3 3 4 9 6 7 8 9 8 6 8 8 7 8 9 11 12 10 12 10 8 9 8 7 7 7 6 5 2 3 3 7 8 3 20 8 1 35 32 29 26 17 16
10 5 7 15 13 13 15 14 14 8 6 7 8 8 7 7 8 8 6 8 8 9 8 8 11 10 8 10 9 9 9 9 8 8 8 3 6 13 6 21 18 8 -17 1 28 31 8
11 2 10 1 10 6 10 8 12 12 7 6 6 8 7 7 5 7 7 7 8 7 8 8 8 8 7 8 10 18 15 21 19 21 18 13 10 6 5 7 -4 36 28 -0 -4 11 22
15 5 5 3 4 8 14 4 9 11 12 10 7 6 7 6 14 5 5 7 7 6 6 9 9 8 6 6 11 10 9 0 15 12 12 13 14 -1 14 9 5 1 -9 13 25 39 9
7 1 2 7 7 4 8 9 4 6 10 11 10 8 6 7 11 13 13 11 10 8 6 8 9 8 9 9 8 14 13 0 15 10 8 11 14 10 8 -2 5 10 20 -7 18 -9 -13
9 11 13 1 11 6 8 11 7 4 5 8 10 9 7 8 6 6 6 6 6 6 5 2 9 15 16 19 11 12 11 7 11 -0 2 3 8 7 23 8 24 12 -16 3 -9 1 6
11 9 9 8 17 13 -4 9 9 7 12 8 9 9 9 9 -2 1 4 5 7 10 11 9 1 -5 -8 -1 -2 11 1 -2 -3 -2 4 14 -1 -14 -7 -29 -24 -18 13 7 1 12 15
Height
3114 3110 3106 3103 3100 3095 3090 3084 3080 3076 3074 3070 3066 3061 3058 3051 3044 3040 3036 3034 3032 3031 3031 3030 3032 3036 3040 3042 3046 3050 3056 3058 3063 3070 3078 3084 3092 3099 3107 3113 3121 3127 3133 3140 3145 3149 3153
3114 3110 3106 3103 3099 3094 3089 3084 3079 3077 3075 3069 3065 3061 3057 3054 3050 3045 3042 3037 3034 3032 3032 3032 3033 3035 3038 3042 3046 3051 3055 3056 3061 3069 3076 3082 3091 3101 3108 3113 3122 3127 3133 3139 3143 3147 3151
3114 3110 3107 3103 3099 3094 3089 3084 3080 3077 3075 3071 3066 3062 3058 3055 3052 3050 3045 3041 3037 3034 3032 3032 3033 3034 3037 3041 3043 3047 3052 3054 3059 3070 3077 3084 3093 3102 3106 3113 3121 3126 3133 3137 3141 3145 3148
3115 3111 3107 3103 3099 3095 3091 3085 3081 3077 3075 3072 3068 3063 3061 3058 3054 3052 3050 3045 3042 3038 3034 3030 3030 3033 3034 3037 3038 3041 3044 3054 3060 3071 3078 3086 3094 3101 3106 3111 3119 3125 3132 3134 3138 3142 3146
3115 3111 3108 3103 3099 3096 3092 3087 3083 3078 3076 3074 3070 3067 3063 3062 3059 3056 3054 3050 3046 3042 3039 3035 3036 3035 3036 3035 3037 3041 3050 3057 3064 3073 3080 3086 3094 3100 3106 3111 3118 3122 3125 3130 3136 3140 3144
3116 3112 3108 3104 3099 3096 3093 3089 3084 3080 3076 3073 3071 3069 3067 3064 3062 3060 3056 3054 3049 3045 3043 3042 3042 3044 3044 3045 3046 3050 3053 3061 3068 3076 3082 3088 3094 3098 3105 3109 3110 3116 3122 3129 3134 3140 3142
3118 3114 3109 3105 3101 3097 3094 3090 3087 3083 3078 3075 3072 3071 3070 3068 3066 3064 3061 3058 3058 3054 3049 3049 3049 3048 3049 3052 3053 3056 3061 3065 3073 3079 3084 3088 3093 3098 3105 3110 3115 3119 3124 3129 3134 3138 3141
3119 3116 3111 3106 3102 3098 3095 3091 3087 3085 3081 3077 3074 3073 3072 3071 3069 3067 3068 3065 3062 3061 3058 3056 3056 3055 3057 3057 3058 3064 3067 3072 3076 3082 3087 3091 3093 3100 3106 3111 3116 3120 3124 3130 3134 3137 3141
3121 3117 3113 3108 3104 3100 3096 3092 3089 3086 3084 3081 3078 3075 3074 3074 3072 3071 3070 3070 3066 3065 3064 3064 3063 3062 3063 3065 3067 3070 3074 3077 3082 3086 3090 3092 3095 3100 3106 3111 3116 3120 3124 3129 3133 3136 3139
3121 3118 3114 3110 3106 3101 3097 3094 3091 3088 3086 3084 3081 3079 3077 3075 3075 3073 3072 3070 3068 3068 3068 3071 3068 3069 3068 3070 3073 3075 3078 3083 3085 3090 3093 3095 3097 3101 3107 3111 3116 3119 3124 3129 3133 3136 3138
3122 3119 3116 3112 3108 3103 3098 3095 3092 3090 3087 3086 3084 3081 3079 3076 3075 3073 3072 3068 3067 3068 3071 3076 3074 3072 3072 3074 3076 3079 3083 3087 3089 3091 3095 3097 3099 3103 3108 3112 3116 3119 3123 3128 3132 3134 3137
3123 3120 3116 3113 3109 3105 3100 3096 3093 3090 3088 3086 3084 3081 3079 3077 3075 3072 3070 3068 3068 3071 3075 3078 3076 3075 3076 3077 3080 3082 3086 3090 3092 3094 3094 3098 3100 3105 3109 3112 3116 3119 3124 3129 3132 3134 3136
3123 3120 3117 3114 3111 3107 3103 3098 3094 3091 3088 3085 3083 3080 3077 3074 3072 3070 3070 3069 3070 3070 3080 3082 3080 3080 3080 3081 3084 3086 3088 3091 3092 3095 3097 3101 3103 3105 3110 3113 3116 3119 3123 3129 3136 3137 3134
3122 3120 3117 3114 3111 3108 3104 3100 3096 3092 3089 3086 3083 3079 3076 3075 3072 3070 3070 3071 3071 3079 3079 3082 3082 3083 3084 3085 3088 3089 3091 3093 3093 3094 3098 3102 3109 3108 3110 3114 3116 3119 3122 3123 3132 3135 3129
3120 3119 3117 3114 3112 3109 3106 3102 3099 3094 3090 3087 3085 3081 3077 3076 3074 3072 3072 3072 3080 3082 3084 3084 3086 3087 3087 3088 3090 3092 3093 3094 3095 3097 3101 3103 3106 3109 3112 3114 3118 3120 3122 3124 3124 3129 3129
3118 3118 3116 3114 3112 3109 3107 3104 3101 3097 3093 3089 3087 3084 3080 3078 3077 3077 3077 3077 3082 3085 3087 3088 3087 3088 3090 3092 3093 3094 3095 3096 3097 3099 3101 3103 3106 3110 3112 3115 3118 3119 3122 3124 3124 3130 3130
3117 3116 3115 3113 3112 3110 3107 3105 3102 3099 3096 3092 3090 3087 3084 3082 3081 3082 3081 3083 3086 3088 3088 3090 3090 3091 3092 3093 3094 3094 3096 3099 3099 3101 3102 3103 3105 3112 3114 3115 3117 3119 3119 3122 3124 3125 3124
3115 3114 3113 3112 3111 3110 3107 3106 3103 3101 3098 3096 3093 3090 3089 3087 3088 3086 3088 3089 3091 3091 3090 3091 3093 3094 3095 3095 3096 3096 3097 3098 3101 3102 3103 3105 3106 3109 3113 3114 3115 3117 3118 3120 3121 3122 3122
3113 3112 3111 3111 3110 3109 3107 3106 3104 3102 3100 3097 3095 3094 3092 3091 3090 3091 3091 3092 3093 3093 3094 3094 3094 3095 3096 3097 3098 3099 3100 3101 3102 3103 3104 3106 3107 3109 3112 3115 3114 3114 3115 3117 3118 3119 3118
3110 3110 3109 3108 3108 3108 3106 3105 3104 3102 3101 3100 3097 3096 3095 3094 3093 3093 3093 3094 3094 3094 3094 3094 3096 3097 3097 3097 3098 3099 3100 3102 3102 3103 3104 3106 3107 3108 3110 3111 3112 3112 3112 3113 3115 3115 3111
3106 3107 3107 3107 3106 3106 3105 3104 3103 3103 3101 3101 3099 3098 3097 3096 3095 3095 3095 3095 3095 3095 3095 3095 3096 3096 3098 3099 3100 3100 3101 3102 3102 3103 3103 3105 3106 3107 3107 3108 3108 3109 3109 3110 3108 3109 3106
3102 3103 3103 3104 3104 3103 3103 3103 3102 3102 3101 3101 3100 3099 3098 3097 3096 3096 3096 3096 3096 3096 3096 3096 3097 3097 3097 3098 3099 3099 3100 3101 3102 3103 3103 3104 3104 3105 3105 3105 3104 3103 3104 3103 3101 3101 3097
3097 3098 3100 3100 3100 3100 3100 3100 3100 3100 3100 3099 3100 3099 3098 3098 3097 3097 3097 3096 3097 3097 3097 3097 3097 3098 3098 3099 3099 3099 3099 3099 3100 3100 3100 3101 3101 3102 3101 3101 3100 3098 3095 3095 3095 3094 3094
3091 3093 3095 3096 3096 3096 3096 3097 3097 3097 3097 3098 3097 3098 3098 3098 3097 3097 3097 3097 3097 3097 3097 3097 3097 3097 3098 3097 3098 3098 3097 3097 3097 3097 3098 3098 3099 3100 3098 3098 3099 3092 3091 3092 3091 3089 3087
3084 3087 3089 3091 3092 3093 3093 3094 3094 3094 3094 3095 3095 3096 3096 3096 3097 3097 3097 3097 3097 3097 3097 3097 3097 3098 3097 3098 3097 3097 3096 3096 3095 3094 3095 3096 3098 3098 3097 3094 3091 3087 3087 3087 3086 3086 3083
3077 3081 3084 3086 3087 3088 3089 3090 3091 3091 3092 3092 3092 3092 3094 3095 3095 3095 3095 3096 3096 3096 3096 3096 3097 3096 3097 3096 3096 3096 3096 3095 3095 3095 3094 3095 3096 3099 3097 3097 3092 3086 3086 3085 3082 3081 3081
3071 3074 3077 3079 3081 3083 3084 3085 3086 3087 3088 3089 3089 3090 3091 3092 3092 3092 3092 3093 3094 3094 3094 3094 3094 3095 3095 3095 3096 3095 3095 3095 3094 3092 3092 3093 3093 3094 3094 3094 3088 3085 3085 3084 3085 3087 3080
3063 3066 3069 3071 3074 3077 3079 3080 3081 3082 3083 3084 3086 3086 3088 3088 3089 3089 3089 3090 3090 3091 3092 3093 3093 3091 3091 3092 3092 3093 3092 3092 3091 3091 3091 3092 3092 3091 3091 3091 3086 3084 3084 3085 3082 3078 3075
3054 3057 3060 3064 3067 3070 3073 3075 3076 3077 3078 3079 3080 3080 3082 3084 3085 3085 3085 3086 3087 3087 3088 3089 3090 3090 3090 3089 3090 3090 3090 3089 3088 3089 3088 3089 3088 3088 3087 3084 3082 3080 3079 3077 3074 3071 3068